,,,PA_Meas_PMT16A,,PR_Meas_QMR101_102,,RH_Meas_QMH101,,SR_Meas_QMS101,,TA_Meas_QMH101,,GenWind,,GenWind,
date,time,status,PA,status,PR,status,RH,status,SR,status,TA,status,DirAvg,status,SpdAvg,
2014-09-20, 00:00:05,VALID,1010.41,VALID,0,INVALID,131.636,VALID,0,VALID,23.4389,VALID,350,VALID,0,
2014-09-20, 00:01:05,VALID,1010.39,VALID,0,INVALID,131.636,VALID,0.112112,VALID,23.4602,VALID,350,VALID,0,
2014-09-20, 00:02:05,VALID,1010.39,VALID,0,INVALID,131.559,VALID,0,VALID,23.4602,VALID,350,VALID,0,
2014-09-20, 00:03:05,VALID,1010.38,VALID,0,INVALID,131.59,VALID,0,VALID,23.4389,VALID,350,VALID,0,
2014-09-20, 00:04:05,VALID,1010.36,VALID,0,INVALID,131.59,VALID,0,VALID,23.4389,VALID,350,VALID,0,
2014-09-20, 00:05:05,VALID,1010.33,VALID,0,INVALID,131.59,VALID,0.112112,VALID,23.4389,VALID,350,VALID,0,
2014-09-20, 00:06:05,VALID,1010.32,VALID,0,INVALID,131.598,VALID,0.112112,VALID,23.4602,VALID,350,VALID,0,
2014-09-20, 00:07:05,VALID,1010.28,VALID,0,INVALID,131.643,VALID,0,VALID,23.4602,VALID,350,VALID,0,
2014-09-20, 00:08:05,VALID,1010.28,VALID,0,INVALID,131.666,VALID,0,VALID,23.4212,VALID,350,VALID,0,
2014-09-20, 00:09:05,VALID,1010.28,VALID,0,INVALID,131.697,VALID,0,VALID,23.4194,VALID,350,VALID,0,
2014-09-20, 00:10:05,VALID,1010.3,VALID,0,INVALID,131.735,VALID,0.112112,VALID,23.4,VALID,350,VALID,0,
2014-09-20, 00:11:05,VALID,1010.29,VALID,0,INVALID,131.712,VALID,0,VALID,23.4407,VALID,350,VALID,0,
2014-09-20, 00:12:05,VALID,1010.31,VALID,0,INVALID,131.659,VALID,0,VALID,23.4212,VALID,350,VALID,0,
2014-09-20, 00:13:05,VALID,1010.31,VALID,0,INVALID,131.59,VALID,0,VALID,23.4407,VALID,350,VALID,0,
2014-09-20, 00:14:05,VALID,1010.28,VALID,0,INVALID,131.575,VALID,0,VALID,23.4407,VALID,350,VALID,0,
2014-09-20, 00:15:05,VALID,1010.28,VALID,0,INVALID,131.521,VALID,0,VALID,23.4602,VALID,350,VALID,0,
2014-09-20, 00:16:05,VALID,1010.29,VALID,0,INVALID,131.537,VALID,0.112112,VALID,23.4407,VALID,350,VALID,0,
2014-09-20, 00:17:05,VALID,1010.3,VALID,0,INVALID,131.537,VALID,0,VALID,23.4602,VALID,350,VALID,0,
2014-09-20, 00:18:05,VALID,1010.3,VALID,0,INVALID,131.476,VALID,0,VALID,23.4602,VALID,350,VALID,0,
2014-09-20, 00:19:05,VALID,1010.31,VALID,0,INVALID,131.453,VALID,0,VALID,23.4602,VALID,350,VALID,0,
2014-09-20, 00:20:05,VALID,1010.3,VALID,0,INVALID,131.392,VALID,0,VALID,23.4389,VALID,350,VALID,0,
2014-09-20, 00:21:05,VALID,1010.31,VALID,0,INVALID,131.392,VALID,0,VALID,23.4602,VALID,350,VALID,0,
2014-09-20, 00:22:05,VALID,1010.31,VALID,0,INVALID,131.415,VALID,0,VALID,23.4407,VALID,350,VALID,0,
2014-09-20, 00:23:05,VALID,1010.32,VALID,0,INVALID,131.506,VALID,0.112112,VALID,23.4212,VALID,350,VALID,0,
2014-09-20, 00:24:05,VALID,1010.33,VALID,0,INVALID,131.537,VALID,0,VALID,23.4212,VALID,350,VALID,0,
2014-09-20, 00:25:05,VALID,1010.35,VALID,0,INVALID,131.59,VALID,0,VALID,23.3805,VALID,350,VALID,0,
2014-09-20, 00:26:05,VALID,1010.33,VALID,0,INVALID,131.636,VALID,0,VALID,23.4017,VALID,350,VALID,0,
2014-09-20, 00:27:05,VALID,1010.33,VALID,0,INVALID,131.628,VALID,0,VALID,23.4017,VALID,350,VALID,0,
2014-09-20, 00:28:05,VALID,1010.33,VALID,0,INVALID,131.605,VALID,0,VALID,23.3805,VALID,350,VALID,0,
2014-09-20, 00:29:05,VALID,1010.33,VALID,0,INVALID,131.59,VALID,0,VALID,23.4212,VALID,350,VALID,0,
2014-09-20, 00:30:05,VALID,1010.33,VALID,0,INVALID,131.582,VALID,0.112112,VALID,23.361,VALID,350,VALID,0,
2014-09-20, 00:31:05,VALID,1010.34,VALID,0,INVALID,131.605,VALID,0.112112,VALID,23.3805,VALID,350,VALID,0,
2014-09-20, 00:32:05,VALID,1010.35,VALID,0,INVALID,131.666,VALID,0,VALID,23.3628,VALID,350,VALID,0,
2014-09-20, 00:33:05,VALID,1010.33,VALID,0,INVALID,131.72,VALID,0,VALID,23.3433,VALID,350,VALID,0,
2014-09-20, 00:34:05,VALID,1010.35,VALID,0,INVALID,131.712,VALID,0,VALID,23.3433,VALID,350,VALID,0,
2014-09-20, 00:35:05,VALID,1010.36,VALID,0,INVALID,131.636,VALID,0,VALID,23.3628,VALID,350,VALID,0,
2014-09-20, 00:36:05,VALID,1010.37,VALID,0,INVALID,131.529,VALID,0,VALID,23.361,VALID,350,VALID,0,
2014-09-20, 00:37:05,VALID,1010.37,VALID,0,INVALID,131.392,VALID,0.112112,VALID,23.3823,VALID,350,VALID,0,
2014-09-20, 00:38:05,VALID,1010.34,VALID,0,INVALID,131.399,VALID,0,VALID,23.3823,VALID,350,VALID,0,
2014-09-20, 00:39:05,VALID,1010.36,VALID,0,INVALID,131.323,VALID,0,VALID,23.4017,VALID,350,VALID,0,
2014-09-20, 00:40:05,VALID,1010.35,VALID,0,INVALID,131.224,VALID,0,VALID,23.4017,VALID,350,VALID,0,
2014-09-20, 00:41:05,VALID,1010.31,VALID,0,INVALID,131.178,VALID,0,VALID,23.4212,VALID,350,VALID,0,
2014-09-20, 00:42:05,VALID,1010.32,VALID,0,INVALID,131.178,VALID,0,VALID,23.4212,VALID,350,VALID,0,
2014-09-20, 00:43:05,VALID,1010.34,VALID,0,INVALID,131.186,VALID,0,VALID,23.4212,VALID,350,VALID,0,
2014-09-20, 00:44:05,VALID,1010.34,VALID,0,INVALID,131.178,VALID,0,VALID,23.4,VALID,350,VALID,0,
2014-09-20, 00:45:05,VALID,1010.33,VALID,0,INVALID,131.216,VALID,0,VALID,23.4194,VALID,350,VALID,0,
2014-09-20, 00:46:05,VALID,1010.31,VALID,0,INVALID,131.209,VALID,0,VALID,23.4407,VALID,350,VALID,0,
2014-09-20, 00:47:05,VALID,1010.32,VALID,0,INVALID,131.254,VALID,0,VALID,23.4212,VALID,350,VALID,0,
2014-09-20, 00:48:05,VALID,1010.29,VALID,0,INVALID,131.262,VALID,0,VALID,23.4194,VALID,350,VALID,0,
2014-09-20, 00:49:05,VALID,1010.28,VALID,0,INVALID,131.3,VALID,0,VALID,23.4212,VALID,350,VALID,0,
2014-09-20, 00:50:05,VALID,1010.29,VALID,0,INVALID,131.346,VALID,0,VALID,23.4194,VALID,350,VALID,0,
2014-09-20, 00:51:05,VALID,1010.29,VALID,0,INVALID,131.392,VALID,0,VALID,23.4212,VALID,350,VALID,0,
2014-09-20, 00:52:05,VALID,1010.28,VALID,0,INVALID,131.399,VALID,0,VALID,23.4407,VALID,350,VALID,0,
2014-09-20, 00:53:05,VALID,1010.27,VALID,0,INVALID,131.392,VALID,0,VALID,23.4194,VALID,350,VALID,0,
2014-09-20, 00:54:05,VALID,1010.3,VALID,0,INVALID,131.422,VALID,0,VALID,23.4407,VALID,350,VALID,0,
2014-09-20, 00:55:05,VALID,1010.33,VALID,0,INVALID,131.453,VALID,0,VALID,23.4194,VALID,350,VALID,0,
2014-09-20, 00:56:05,VALID,1010.3,VALID,0,INVALID,131.392,VALID,0,VALID,23.4602,VALID,350,VALID,0,
2014-09-20, 00:57:05,VALID,1010.27,VALID,0,INVALID,131.415,VALID,0,VALID,23.4602,VALID,350,VALID,0,
2014-09-20, 00:58:05,VALID,1010.24,VALID,0,INVALID,131.46,VALID,0,VALID,23.4602,VALID,350,VALID,0,
2014-09-20, 00:59:05,VALID,1010.23,VALID,0,INVALID,131.521,VALID,0,VALID,23.4389,VALID,350,VALID,0,
2014-09-20, 01:00:05,VALID,1010.24,VALID,0,INVALID,131.582,VALID,0,VALID,23.4407,VALID,350,VALID,0,
2014-09-20, 01:01:05,VALID,1010.21,VALID,0,INVALID,131.605,VALID,0,VALID,23.4407,VALID,350,VALID,0,
2014-09-20, 01:02:05,VALID,1010.24,VALID,0,INVALID,131.651,VALID,0,VALID,23.4407,VALID,350,VALID,0,
2014-09-20, 01:03:05,VALID,1010.21,VALID,0,INVALID,131.674,VALID,0,VALID,23.4407,VALID,350,VALID,0,
2014-09-20, 01:04:05,VALID,1010.22,VALID,0,INVALID,131.758,VALID,0,VALID,23.4194,VALID,350,VALID,0,
2014-09-20, 01:05:05,VALID,1010.19,VALID,0,INVALID,131.758,VALID,0,VALID,23.4194,VALID,350,VALID,0,
2014-09-20, 01:06:05,VALID,1010.2,VALID,0,INVALID,131.743,VALID,0,VALID,23.4407,VALID,350,VALID,0,
2014-09-20, 01:07:05,VALID,1010.16,VALID,0,INVALID,131.758,VALID,0,VALID,23.4407,VALID,350,VALID,0,
2014-09-20, 01:08:05,VALID,1010.13,VALID,0,INVALID,131.788,VALID,0,VALID,23.4407,VALID,350,VALID,0,
2014-09-20, 01:09:05,VALID,1010.08,VALID,0,INVALID,131.826,VALID,0,VALID,23.4602,VALID,350,VALID,0,
2014-09-20, 01:10:05,VALID,1010.02,VALID,0,INVALID,131.903,VALID,0.112112,VALID,23.4602,VALID,350,VALID,0,
2014-09-20, 01:11:05,VALID,1010.05,VALID,0,INVALID,131.88,VALID,0,VALID,23.4407,VALID,350,VALID,0,
2014-09-20, 01:12:05,VALID,1010.01,VALID,0,INVALID,131.933,VALID,0.112112,VALID,23.4407,VALID,350,VALID,0,
2014-09-20, 01:13:05,VALID,1009.98,VALID,0,INVALID,131.948,VALID,0,VALID,23.4407,VALID,350,VALID,0,
2014-09-20, 01:14:05,VALID,1009.97,VALID,0,INVALID,132.025,VALID,0,VALID,23.4194,VALID,350,VALID,0,
2014-09-20, 01:15:04,VALID,1009.94,VALID,0,INVALID,132.086,VALID,0,VALID,23.4407,VALID,350,VALID,0,
2014-09-20, 01:16:04,VALID,1009.94,VALID,0,INVALID,132.17,VALID,0,VALID,23.4212,VALID,350,VALID,0,
2014-09-20, 01:17:04,VALID,1009.91,VALID,0,INVALID,132.208,VALID,0,VALID,23.4407,VALID,350,VALID,0,
2014-09-20, 01:18:04,VALID,1009.9,VALID,0,INVALID,132.192,VALID,0,VALID,23.4407,VALID,350,VALID,0,
2014-09-20, 01:19:04,VALID,1009.86,VALID,0,INVALID,132.17,VALID,0,VALID,23.4407,VALID,350,VALID,0,
2014-09-20, 01:20:04,VALID,1009.87,VALID,0,INVALID,132.238,VALID,0,VALID,23.4407,VALID,350,VALID,0,
2014-09-20, 01:21:04,VALID,1009.85,VALID,0,INVALID,132.33,VALID,0,VALID,23.4212,VALID,350,VALID,0,
2014-09-20, 01:22:04,VALID,1009.84,VALID,0,INVALID,132.436,VALID,0,VALID,23.4017,VALID,350,VALID,0,
2014-09-20, 01:23:04,VALID,1009.81,VALID,0,INVALID,132.566,VALID,0,VALID,23.3823,VALID,350,VALID,0,
2014-09-20, 01:24:04,VALID,1009.78,VALID,0,INVALID,132.658,VALID,0,VALID,23.3628,VALID,350,VALID,0,
2014-09-20, 01:25:04,VALID,1009.78,VALID,0,INVALID,132.764,VALID,0,VALID,23.3433,VALID,350,VALID,0,
2014-09-20, 01:26:04,VALID,1009.76,VALID,0,INVALID,132.848,VALID,0,VALID,23.3433,VALID,350,VALID,0,
2014-09-20, 01:27:04,VALID,1009.79,VALID,0,INVALID,132.902,VALID,0,VALID,23.3043,VALID,350,VALID,0,
2014-09-20, 01:28:04,VALID,1009.76,VALID,0,INVALID,132.925,VALID,0,VALID,23.3043,VALID,350,VALID,0,
2014-09-20, 01:29:04,VALID,1009.75,VALID,0,INVALID,132.947,VALID,0,VALID,23.2848,VALID,350,VALID,0,
2014-09-20, 01:30:04,VALID,1009.74,VALID,0,INVALID,132.925,VALID,0,VALID,23.2636,VALID,350,VALID,0,
2014-09-20, 01:31:04,VALID,1009.71,VALID,0,INVALID,132.909,VALID,0,VALID,23.2848,VALID,350,VALID,0,
2014-09-20, 01:32:04,VALID,1009.7,VALID,0,INVALID,132.848,VALID,0,VALID,23.2654,VALID,350,VALID,0,
2014-09-20, 01:33:04,VALID,1009.71,VALID,0,INVALID,132.833,VALID,0,VALID,23.2848,VALID,350,VALID,0,
2014-09-20, 01:34:04,VALID,1009.7,VALID,0,INVALID,132.734,VALID,0,VALID,23.2654,VALID,350,VALID,0,
2014-09-20, 01:35:04,VALID,1009.7,VALID,0,INVALID,132.726,VALID,0,VALID,23.2654,VALID,350,VALID,0,
2014-09-20, 01:36:04,VALID,1009.72,VALID,0,INVALID,132.741,VALID,0,VALID,23.2459,VALID,350,VALID,0,
2014-09-20, 01:37:04,VALID,1009.71,VALID,0,INVALID,132.696,VALID,0,VALID,23.2459,VALID,350,VALID,0,
2014-09-20, 01:38:04,VALID,1009.67,VALID,0,INVALID,132.703,VALID,0,VALID,23.2264,VALID,350,VALID,0,
2014-09-20, 01:39:04,VALID,1009.67,VALID,0,INVALID,132.642,VALID,0,VALID,23.2459,VALID,350,VALID,0,
2014-09-20, 01:40:04,VALID,1009.64,VALID,0,INVALID,132.566,VALID,0,VALID,23.2264,VALID,350,VALID,0,
2014-09-20, 01:41:04,VALID,1009.63,VALID,0,INVALID,132.467,VALID,0,VALID,23.2459,VALID,350,VALID,0,
2014-09-20, 01:42:04,VALID,1009.62,VALID,0,INVALID,132.368,VALID,0,VALID,23.2459,VALID,350,VALID,0,
2014-09-20, 01:43:04,VALID,1009.62,VALID,0,INVALID,132.231,VALID,0,VALID,23.2654,VALID,350,VALID,0,
2014-09-20, 01:44:04,VALID,1009.61,VALID,0,INVALID,132.147,VALID,0,VALID,23.2848,VALID,350,VALID,0,
2014-09-20, 01:45:04,VALID,1009.59,VALID,0,INVALID,132.093,VALID,0,VALID,23.2848,VALID,350,VALID,0,
2014-09-20, 01:46:04,VALID,1009.56,VALID,0,INVALID,132.093,VALID,0,VALID,23.2654,VALID,350,VALID,0,
2014-09-20, 01:47:04,VALID,1009.55,VALID,0,INVALID,132.147,VALID,0.112112,VALID,23.2264,VALID,350,VALID,0,
2014-09-20, 01:48:04,VALID,1009.54,VALID,0,INVALID,132.2,VALID,0,VALID,23.2264,VALID,350,VALID,0,
2014-09-20, 01:49:04,VALID,1009.55,VALID,0,INVALID,132.307,VALID,0,VALID,23.2069,VALID,350,VALID,0,
2014-09-20, 01:50:04,VALID,1009.52,VALID,0,INVALID,132.398,VALID,0,VALID,23.1874,VALID,350,VALID,0,
2014-09-20, 01:51:04,VALID,1009.54,VALID,0,INVALID,132.421,VALID,0,VALID,23.1485,VALID,350,VALID,0,
2014-09-20, 01:52:04,VALID,1009.54,VALID,0,INVALID,132.398,VALID,0,VALID,23.1679,VALID,350,VALID,0,
2014-09-20, 01:53:04,VALID,1009.55,VALID,0,INVALID,132.436,VALID,0,VALID,23.129,VALID,350,VALID,0,
2014-09-20, 01:54:04,VALID,1009.53,VALID,0,INVALID,132.467,VALID,0,VALID,23.1272,VALID,350,VALID,0,
2014-09-20, 01:55:04,VALID,1009.53,VALID,0,INVALID,132.459,VALID,0,VALID,23.1095,VALID,350,VALID,0,
2014-09-20, 01:56:04,VALID,1009.51,VALID,0,INVALID,132.505,VALID,0,VALID,23.0688,VALID,350,VALID,0,
2014-09-20, 01:57:04,VALID,1009.49,VALID,0,INVALID,132.558,VALID,0.112112,VALID,23.0493,VALID,350,VALID,0,
2014-09-20, 01:58:04,VALID,1009.48,VALID,0,INVALID,132.543,VALID,0,VALID,23.0705,VALID,350,VALID,0,
2014-09-20, 01:59:04,VALID,1009.49,VALID,0,INVALID,132.543,VALID,0,VALID,23.0511,VALID,350,VALID,0,
2014-09-20, 02:00:04,VALID,1009.46,VALID,0,INVALID,132.505,VALID,0,VALID,23.0705,VALID,350,VALID,0,
2014-09-20, 02:01:04,VALID,1009.48,VALID,0,INVALID,132.421,VALID,0,VALID,23.0705,VALID,350,VALID,0,
2014-09-20, 02:02:04,VALID,1009.47,VALID,0,INVALID,132.299,VALID,0,VALID,23.0705,VALID,350,VALID,0,
2014-09-20, 02:03:04,VALID,1009.44,VALID,0,INVALID,132.04,VALID,0,VALID,23.09,VALID,350,VALID,0,
2014-09-20, 02:04:04,VALID,1009.44,VALID,0,INVALID,131.788,VALID,0.112112,VALID,23.1095,VALID,350,VALID,0,
2014-09-20, 02:05:04,VALID,1009.45,VALID,0,INVALID,131.743,VALID,0,VALID,23.129,VALID,350,VALID,0,
2014-09-20, 02:06:04,VALID,1009.42,VALID,0,INVALID,131.674,VALID,0,VALID,23.1095,VALID,350,VALID,0,
2014-09-20, 02:07:04,VALID,1009.45,VALID,0,INVALID,131.781,VALID,0,VALID,23.1095,VALID,350,VALID,0,
2014-09-20, 02:08:04,VALID,1009.46,VALID,0,INVALID,131.804,VALID,0,VALID,23.0705,VALID,350,VALID,0,
2014-09-20, 02:09:04,VALID,1009.47,VALID,0,INVALID,131.941,VALID,0,VALID,23.0316,VALID,350,VALID,0,
2014-09-20, 02:10:04,VALID,1009.53,VALID,0,INVALID,131.895,VALID,0,VALID,23.0316,VALID,350,VALID,0,
2014-09-20, 02:11:04,VALID,1009.54,VALID,0,INVALID,131.895,VALID,0.112112,VALID,23.0103,VALID,350,VALID,0,
2014-09-20, 02:12:04,VALID,1009.54,VALID,0,INVALID,131.971,VALID,0.112112,VALID,22.9926,VALID,350,VALID,0,
2014-09-20, 02:13:04,VALID,1009.55,VALID,0,INVALID,132.055,VALID,0,VALID,22.9926,VALID,350,VALID,0,
2014-09-20, 02:14:04,VALID,1009.54,VALID,0,INVALID,131.979,VALID,0.112112,VALID,23.0121,VALID,350,VALID,0,
2014-09-20, 02:15:04,VALID,1009.52,VALID,0,INVALID,131.834,VALID,0,VALID,23.0121,VALID,350,VALID,0,
2014-09-20, 02:16:04,VALID,1009.5,VALID,0,INVALID,131.483,VALID,0,VALID,23.0298,VALID,350,VALID,0,
2014-09-20, 02:17:04,VALID,1009.49,VALID,0,INVALID,131.338,VALID,0,VALID,23.0511,VALID,350,VALID,0,
2014-09-20, 02:18:04,VALID,1009.48,VALID,0,INVALID,131.407,VALID,0.112112,VALID,23.0298,VALID,350,VALID,0,
2014-09-20, 02:19:04,VALID,1009.48,VALID,0,INVALID,131.468,VALID,0,VALID,23.0316,VALID,350,VALID,0,
2014-09-20, 02:20:04,VALID,1009.48,VALID,0,INVALID,131.437,VALID,0,VALID,23.0103,VALID,350,VALID,0,
2014-09-20, 02:21:04,VALID,1009.5,VALID,0,INVALID,131.46,VALID,0,VALID,23.0103,VALID,350,VALID,0,
2014-09-20, 02:22:04,VALID,1009.48,VALID,0,INVALID,131.262,VALID,0.112112,VALID,23.0688,VALID,350,VALID,0,
2014-09-20, 02:23:04,VALID,1009.48,VALID,0,INVALID,130.911,VALID,0,VALID,23.1077,VALID,350,VALID,0,
2014-09-20, 02:24:04,VALID,1009.49,VALID,0,INVALID,130.568,VALID,0,VALID,23.1874,VALID,350,VALID,0,
2014-09-20, 02:25:04,VALID,1009.44,VALID,0,INVALID,130.324,VALID,0,VALID,23.2069,VALID,350,VALID,0,
2014-09-20, 02:26:04,VALID,1009.46,VALID,0,INVALID,130.24,VALID,0,VALID,23.1857,VALID,350,VALID,0,
2014-09-20, 02:27:04,VALID,1009.44,VALID,0,INVALID,130.164,VALID,0.112112,VALID,23.1857,VALID,350,VALID,0,
2014-09-20, 02:28:04,VALID,1009.44,VALID,0,INVALID,130.332,VALID,0,VALID,23.1467,VALID,350,VALID,0,
2014-09-20, 02:29:04,VALID,1009.47,VALID,0,INVALID,130.522,VALID,0,VALID,23.1272,VALID,350,VALID,0,
2014-09-20, 02:30:04,VALID,1009.48,VALID,0,INVALID,130.698,VALID,0,VALID,23.0883,VALID,350,VALID,0,
2014-09-20, 02:31:04,VALID,1009.52,VALID,0,INVALID,131.003,VALID,0,VALID,23.0511,VALID,350,VALID,0,
2014-09-20, 02:32:04,VALID,1009.51,VALID,0,INVALID,131.186,VALID,0.112112,VALID,23.0103,VALID,350,VALID,0,
2014-09-20, 02:33:04,VALID,1009.53,VALID,0,INVALID,131.155,VALID,0.112112,VALID,22.9909,VALID,350,VALID,0,
2014-09-20, 02:34:04,VALID,1009.54,VALID,0,INVALID,131.201,VALID,0.112112,VALID,22.9926,VALID,350,VALID,0,
2014-09-20, 02:35:04,VALID,1009.53,VALID,0,INVALID,131.163,VALID,0.112112,VALID,22.9731,VALID,350,VALID,0,
2014-09-20, 02:36:04,VALID,1009.54,VALID,0,INVALID,131.193,VALID,0.112112,VALID,22.9519,VALID,350,VALID,0,
2014-09-20, 02:37:04,VALID,1009.52,VALID,0,INVALID,131.094,VALID,0,VALID,22.9519,VALID,350,VALID,0,
2014-09-20, 02:38:04,VALID,1009.52,VALID,0,INVALID,131.064,VALID,0.112112,VALID,22.9519,VALID,350,VALID,0,
2014-09-20, 02:39:04,VALID,1009.51,VALID,0,INVALID,131.018,VALID,0,VALID,22.9519,VALID,350,VALID,0,
2014-09-20, 02:40:04,VALID,1009.52,VALID,0,INVALID,130.888,VALID,0,VALID,22.9731,VALID,350,VALID,0,
2014-09-20, 02:41:04,VALID,1009.51,VALID,0,INVALID,130.85,VALID,0,VALID,22.9519,VALID,350,VALID,0,
2014-09-20, 02:42:04,VALID,1009.53,VALID,0,INVALID,130.774,VALID,0.112112,VALID,22.9519,VALID,350,VALID,0,
2014-09-20, 02:43:04,VALID,1009.54,VALID,0,INVALID,130.85,VALID,0.112112,VALID,22.9519,VALID,350,VALID,0,
2014-09-20, 02:44:04,VALID,1009.56,VALID,0,INVALID,130.98,VALID,0.112112,VALID,22.8935,VALID,350,VALID,0,
2014-09-20, 02:45:04,VALID,1009.6,VALID,0,INVALID,131.193,VALID,0.112112,VALID,22.874,VALID,350,VALID,0,
2014-09-20, 02:46:04,VALID,1009.64,VALID,0,INVALID,131.293,VALID,0.112112,VALID,22.8545,VALID,350,VALID,0,
2014-09-20, 02:47:04,VALID,1009.65,VALID,0,INVALID,131.186,VALID,0,VALID,22.8757,VALID,350,VALID,0,
2014-09-20, 02:48:04,VALID,1009.7,VALID,0,INVALID,130.98,VALID,0,VALID,22.874,VALID,350,VALID,0,
2014-09-20, 02:49:04,VALID,1009.73,VALID,0,INVALID,130.934,VALID,0,VALID,22.874,VALID,350,VALID,0,
2014-09-20, 02:50:04,VALID,1009.77,VALID,0,INVALID,130.881,VALID,0.112112,VALID,22.8723,VALID,350,VALID,0,
2014-09-20, 02:51:04,VALID,1009.76,VALID,0,INVALID,130.744,VALID,0.112112,VALID,22.8935,VALID,350,VALID,0,
2014-09-20, 02:52:04,VALID,1009.79,VALID,0,INVALID,130.667,VALID,0.112112,VALID,22.9147,VALID,350,VALID,0,
2014-09-20, 02:53:04,VALID,1009.8,VALID,0,INVALID,130.622,VALID,0,VALID,22.8935,VALID,350,VALID,0,
2014-09-20, 02:54:04,VALID,1009.8,VALID,0,INVALID,130.606,VALID,0.112112,VALID,22.9147,VALID,350,VALID,0,
2014-09-20, 02:55:04,VALID,1009.8,VALID,0,INVALID,130.622,VALID,0.112112,VALID,22.8952,VALID,350,VALID,0,
2014-09-20, 02:56:04,VALID,1009.84,VALID,0,INVALID,130.591,VALID,0.112112,VALID,22.874,VALID,350,VALID,0,
2014-09-20, 02:57:04,VALID,1009.85,VALID,0,INVALID,130.622,VALID,0,VALID,22.8545,VALID,350,VALID,0,
2014-09-20, 02:58:04,VALID,1009.89,VALID,0,INVALID,130.66,VALID,0.112112,VALID,22.8545,VALID,350,VALID,0,
2014-09-20, 02:59:04,VALID,1009.9,VALID,0,INVALID,130.698,VALID,0.112112,VALID,22.874,VALID,350,VALID,0,
2014-09-20, 03:00:04,VALID,1009.9,VALID,0,INVALID,130.492,VALID,0.112112,VALID,22.9129,VALID,350,VALID,0,
2014-09-20, 03:01:04,VALID,1009.9,VALID,0,INVALID,130.248,VALID,0.112112,VALID,22.9324,VALID,350,VALID,0,
2014-09-20, 03:02:04,VALID,1009.88,VALID,0,INVALID,130.065,VALID,0.112112,VALID,22.9714,VALID,350,VALID,0,
2014-09-20, 03:03:04,VALID,1009.9,VALID,0,INVALID,129.859,VALID,0.112112,VALID,22.9909,VALID,350,VALID,0,
2014-09-20, 03:04:04,VALID,1009.86,VALID,0,INVALID,129.722,VALID,0.112112,VALID,23.0103,VALID,350,VALID,0,
2014-09-20, 03:05:04,VALID,1009.88,VALID,0,INVALID,129.562,VALID,0.112112,VALID,23.0298,VALID,350,VALID,0,
2014-09-20, 03:06:04,VALID,1009.87,VALID,0,INVALID,129.424,VALID,0.112112,VALID,23.0493,VALID,350,VALID,0,
2014-09-20, 03:07:04,VALID,1009.88,VALID,0,INVALID,129.31,VALID,0.112112,VALID,23.0705,VALID,350,VALID,0,
2014-09-20, 03:08:04,VALID,1009.86,VALID,0,INVALID,129.226,VALID,0.112112,VALID,23.0493,VALID,350,VALID,0,
2014-09-20, 03:09:04,VALID,1009.86,VALID,0,INVALID,129.157,VALID,0,VALID,23.0493,VALID,350,VALID,0,
2014-09-20, 03:10:04,VALID,1009.85,VALID,0,INVALID,129.119,VALID,0.112112,VALID,23.0883,VALID,350,VALID,0,
2014-09-20, 03:11:04,VALID,1009.86,VALID,0,INVALID,129.043,VALID,0.112112,VALID,23.0883,VALID,350,VALID,0,
2014-09-20, 03:12:04,VALID,1009.85,VALID,0,INVALID,128.997,VALID,0,VALID,23.1095,VALID,350,VALID,0,
2014-09-20, 03:13:04,VALID,1009.86,VALID,0,INVALID,129.058,VALID,0,VALID,23.09,VALID,350,VALID,0,
2014-09-20, 03:14:04,VALID,1009.82,VALID,0,INVALID,129.257,VALID,0,VALID,23.0511,VALID,350,VALID,0,
2014-09-20, 03:15:04,VALID,1009.81,VALID,0,INVALID,129.386,VALID,0,VALID,23.0316,VALID,350,VALID,0,
2014-09-20, 03:16:04,VALID,1009.79,VALID,0,INVALID,129.455,VALID,0,VALID,23.0138,VALID,350,VALID,0,
2014-09-20, 03:17:04,VALID,1009.76,VALID,0,INVALID,129.447,VALID,0,VALID,23.0333,VALID,350,VALID,0,
2014-09-20, 03:18:04,VALID,1009.74,VALID,0,INVALID,129.34,VALID,0,VALID,23.0121,VALID,350,VALID,0,
2014-09-20, 03:19:04,VALID,1009.73,VALID,0,INVALID,129.211,VALID,0,VALID,23.0316,VALID,350,VALID,0,
2014-09-20, 03:20:04,VALID,1009.73,VALID,0,INVALID,129.157,VALID,0,VALID,23.0316,VALID,350,VALID,0,
2014-09-20, 03:21:04,VALID,1009.73,VALID,0,INVALID,129.142,VALID,0,VALID,23.0121,VALID,350,VALID,0,
2014-09-20, 03:22:04,VALID,1009.71,VALID,0,INVALID,128.997,VALID,0,VALID,23.0316,VALID,350,VALID,0,
2014-09-20, 03:23:04,VALID,1009.72,VALID,0,INVALID,128.944,VALID,0,VALID,23.0511,VALID,350,VALID,0,
2014-09-20, 03:24:04,VALID,1009.7,VALID,0,INVALID,128.913,VALID,0,VALID,23.0316,VALID,350,VALID,0,
2014-09-20, 03:25:04,VALID,1009.69,VALID,0,INVALID,128.959,VALID,0,VALID,23.0316,VALID,350,VALID,0,
2014-09-20, 03:26:04,VALID,1009.68,VALID,0,INVALID,128.99,VALID,0,VALID,23.0121,VALID,350,VALID,0,
2014-09-20, 03:27:04,VALID,1009.69,VALID,0,INVALID,128.959,VALID,0.112112,VALID,23.0511,VALID,350,VALID,0,
2014-09-20, 03:28:04,VALID,1009.68,VALID,0,INVALID,128.997,VALID,0.112112,VALID,23.0316,VALID,350,VALID,0,
2014-09-20, 03:29:04,VALID,1009.71,VALID,0,INVALID,128.997,VALID,0.112112,VALID,23.0298,VALID,350,VALID,0,
2014-09-20, 03:30:04,VALID,1009.69,VALID,0,INVALID,128.936,VALID,0.112112,VALID,23.0298,VALID,350,VALID,0,
2014-09-20, 03:31:04,VALID,1009.71,VALID,0,INVALID,128.959,VALID,0.112112,VALID,23.0103,VALID,350,VALID,0,
2014-09-20, 03:32:04,VALID,1009.71,VALID,0,INVALID,128.936,VALID,0.112112,VALID,23.0103,VALID,350,VALID,0,
2014-09-20, 03:33:04,VALID,1009.72,VALID,0,INVALID,128.967,VALID,0.112112,VALID,23.0298,VALID,350,VALID,0,
2014-09-20, 03:34:04,VALID,1009.71,VALID,0,INVALID,128.875,VALID,0.112112,VALID,23.0298,VALID,350,VALID,0,
2014-09-20, 03:35:04,VALID,1009.69,VALID,0,INVALID,128.868,VALID,0,VALID,23.0103,VALID,350,VALID,0,
2014-09-20, 03:36:04,VALID,1009.68,VALID,0,INVALID,128.921,VALID,0.112112,VALID,23.0298,VALID,350,VALID,0,
2014-09-20, 03:37:04,VALID,1009.68,VALID,0,INVALID,128.921,VALID,0.112112,VALID,23.0103,VALID,350,VALID,0,
2014-09-20, 03:38:04,VALID,1009.64,VALID,0,INVALID,129.028,VALID,0.112112,VALID,22.9909,VALID,350,VALID,0,
2014-09-20, 03:39:04,VALID,1009.65,VALID,0,INVALID,129.066,VALID,0.112112,VALID,22.9909,VALID,350,VALID,0,
2014-09-20, 03:40:04,VALID,1009.66,VALID,0,INVALID,129.173,VALID,0.112112,VALID,22.9909,VALID,350,VALID,0,
2014-09-20, 03:41:04,VALID,1009.65,VALID,0,INVALID,129.226,VALID,0.112112,VALID,22.9502,VALID,350,VALID,0,
2014-09-20, 03:42:04,VALID,1009.68,VALID,0,INVALID,129.31,VALID,0,VALID,22.9536,VALID,350,VALID,0,
2014-09-20, 03:43:04,VALID,1009.67,VALID,0,INVALID,129.287,VALID,0,VALID,22.9554,VALID,350,VALID,0,
2014-09-20, 03:44:04,VALID,1009.63,VALID,0,INVALID,129.34,VALID,0,VALID,22.9536,VALID,350,VALID,0,
2014-09-20, 03:45:04,VALID,1009.63,VALID,0,INVALID,129.363,VALID,0,VALID,22.9359,VALID,350,VALID,0,
2014-09-20, 03:46:04,VALID,1009.61,VALID,0,INVALID,129.333,VALID,0,VALID,22.9536,VALID,350,VALID,0,
2014-09-20, 03:47:04,VALID,1009.59,VALID,0,INVALID,129.295,VALID,0,VALID,22.9749,VALID,350,VALID,0,
2014-09-20, 03:48:04,VALID,1009.61,VALID,0,INVALID,129.302,VALID,0,VALID,22.9536,VALID,350,VALID,0,
2014-09-20, 03:49:04,VALID,1009.52,VALID,0,INVALID,129.279,VALID,0,VALID,22.9536,VALID,350,VALID,0,
2014-09-20, 03:50:04,VALID,1009.55,VALID,0,INVALID,129.379,VALID,0,VALID,22.9342,VALID,350,VALID,0,